Tracking 29493 objects as of 9-Sep-2024
HD Live streaming from Space Station
objects crossing your sky now

STARLINK-1581

Track STARLINK-1581 now!
10-day predictions
STARLINK-1581 is classified as:


NORAD ID: 46042
Int'l Code: 2020-055R
Perigee: 553.4 km
Apogee: 555.2 km
Inclination: 53.1 °
Period: 95.6 minutes
Semi major axis: 6925 km
RCS: Unknown
Launch date: August 7, 2020
Source: United States (US)
Launch site: AIR FORCE EASTERN TEST RANGE (AFETR)
Your satellite tracking list
Your tracking list is empty




NASA's NSSDC Master Catalog

Two Line Element Set (TLE):
1 46042U 20055R   24252.80188591  .00015295  00000-0  10431-2 0  9996
2 46042  53.0534  61.6918 0001290  83.2360 276.8775 15.06413458226428
Source of the keplerian elements: AFSPC